PBO Station Position Time Series. Reference Frame : NAM14
Format Version,1.1.0
4-character ID,P730
Station name,BallardRdgCN2007
Begin Date, 2007-09-13
End Date, 2019-10-07
Release Date, 2019-10-08
Reference position, 41.3591972397 North Latitude, -120.8282507335 East Longitude, 1822.48773 meters elevation,
Date, North (mm), East (mm), Vertical (mm), North Std. Deviation (mm), East Std. Deviation (mm),              Vertical Std. Deviation (mm), Quality,
2007-09-13,0.00, 0.00, 0.00, 2.28, 1.69, 7.72, repro,
2007-09-14,2.72, -1.37, 2.45, 2.30, 1.75, 7.86, repro,
2007-09-15,0.94, -1.94, 6.83, 2.27, 1.67, 7.69, repro,
2007-09-16,2.55, -2.03, 2.38, 2.21, 1.68, 7.54, repro,
2007-09-17,2.23, -1.77, 8.32, 2.28, 1.74, 7.81, repro,
2007-09-18,0.79, -1.28, 11.88, 2.19, 1.70, 7.51, repro,
2007-09-19,0.32, -1.51, 8.01, 2.09, 1.59, 7.20, repro,
2007-09-20,1.16, -0.31, 8.15, 2.18, 1.63, 7.38, repro,
2007-09-21,1.82, -0.13, 9.07, 2.22, 1.67, 7.62, repro,
2007-09-22,1.80, -0.98, 7.92, 2.18, 1.61, 7.39, repro,
2007-09-23,0.32, -0.54, 8.63, 2.24, 1.69, 7.61, repro,
2007-09-24,0.87, 1.07, 7.89, 2.22, 1.65, 7.52, repro,
2007-09-25,0.39, 0.52, 3.05, 2.18, 1.63, 7.49, repro,
2007-09-26,3.22, -0.57, 8.05, 2.16, 1.60, 7.33, repro,
2007-09-27,2.37, -0.99, 3.94, 2.18, 1.63, 7.50, repro,
2007-09-28,1.36, -0.49, 4.42, 2.24, 1.74, 7.71, repro,
2007-09-29,-0.51, -0.06, 6.44, 2.20, 1.69, 7.56, repro,
2007-09-30,-0.28, -0.86, 10.69, 2.54, 2.29, 9.58, repro,
2007-10-01,2.07, 0.08, 4.08, 2.19, 1.69, 7.57, repro,
2007-10-02,2.14, -0.37, 9.41, 2.22, 1.73, 7.76, repro,
2007-10-03,-2.03, -1.32, 11.16, 2.17, 1.66, 7.53, repro,
2007-10-04,1.97, 0.70, 12.78, 2.18, 1.66, 7.55, repro,
2007-10-05,-0.06, 0.60, 11.68, 2.29, 1.78, 7.98, repro,
2007-10-06,0.99, -0.32, 8.74, 2.18, 1.68, 7.53, repro,
2007-10-07,1.89, -0.44, 3.96, 2.23, 1.70, 7.67, repro,
2007-10-08,0.88, -1.63, 2.85, 2.47, 1.80, 8.49, repro,
2007-10-09,-1.07, -3.39, -6.12, 2.75, 2.45, 10.50, repro,
2007-10-10,-0.14, 2.07, -3.59, 2.35, 1.74, 8.03, repro,
2007-10-11,1.41, 1.01, 2.48, 2.17, 1.68, 7.49, repro,
2007-10-12,0.34, -1.31, 2.91, 2.18, 1.69, 7.59, repro,
2007-10-13,1.89, -0.13, 10.34, 2.12, 1.63, 7.35, repro,
2007-10-14,1.85, 0.09, 7.84, 2.13, 1.63, 7.40, repro,
2007-10-15,-0.45, -1.47, 7.04, 2.13, 1.63, 7.41, repro,
2007-10-16,-0.44, 0.34, -0.52, 2.17, 1.66, 7.46, repro,
2007-10-17,0.42, 2.37, 16.65, 2.11, 1.61, 7.27, repro,
2007-10-18,-1.35, -1.38, 6.35, 2.11, 1.62, 7.33, repro,
2007-10-19,1.74, 2.79, 3.22, 2.12, 1.63, 7.36, repro,
2007-10-20,1.53, 0.33, 2.83, 2.10, 1.59, 7.27, repro,
2007-10-21,0.35, 0.25, 3.80, 2.16, 1.67, 7.65, repro,
2007-10-22,0.36, 0.45, 3.10, 2.13, 1.62, 7.37, repro,
2007-10-23,2.68, 0.26, -0.45, 2.18, 1.69, 7.54, repro,
2007-10-24,1.48, -1.11, -2.56, 2.23, 1.74, 7.84, repro,
2007-10-25,1.57, 0.33, 0.98, 2.15, 1.63, 7.40, repro,
2007-10-26,2.78, 0.90, 0.70, 2.15, 1.67, 7.50, repro,
2007-10-27,1.36, 0.41, 0.04, 2.13, 1.63, 7.34, repro,
2007-10-28,1.83, 0.02, -3.98, 2.20, 1.67, 7.51, repro,
2007-10-29,0.87, -0.87, -0.43, 2.12, 1.64, 7.41, repro,
2007-10-30,2.40, 0.58, -0.17, 2.20, 1.70, 7.68, repro,
2007-10-31,1.20, 0.93, -6.31, 2.13, 1.62, 7.36, repro,
2007-11-01,2.18, 0.92, -3.32, 2.10, 1.61, 7.30, repro,
2007-11-02,2.32, 0.57, 0.74, 2.16, 1.64, 7.39, repro,
2007-11-03,1.11, 0.47, -2.61, 2.13, 1.63, 7.30, repro,
2007-11-04,1.56, -0.53, -1.86, 2.10, 1.60, 7.24, repro,
2007-11-05,1.43, 0.31, -2.05, 2.09, 1.60, 7.24, repro,
2007-11-06,1.43, 0.61, -1.48, 2.16, 1.69, 7.62, repro,
2007-11-07,2.39, 0.07, -1.47, 2.08, 1.59, 7.14, repro,
2007-11-08,0.16, 0.62, 2.79, 2.12, 1.62, 7.23, repro,
2007-11-09,0.49, -2.04, -1.29, 2.13, 1.64, 7.33, repro,
2007-11-10,-0.19, -0.54, -7.42, 2.10, 1.60, 7.29, repro,
2007-11-11,0.22, -0.06, 2.56, 2.10, 1.59, 7.29, repro,
2007-11-12,0.32, -2.06, 1.80, 2.09, 1.58, 7.19, repro,
2007-11-13,-1.94, 0.32, -4.69, 2.09, 1.59, 7.22, repro,
2007-11-14,0.55, 1.15, -7.09, 2.12, 1.62, 7.36, repro,
2007-11-15,1.30, -1.27, -6.94, 2.13, 1.62, 7.37, repro,
2007-11-16,-1.81, -1.00, -6.21, 2.08, 1.60, 7.28, repro,
2007-11-17,-1.74, -1.42, -5.56, 2.10, 1.59, 7.25, repro,
2007-11-18,3.29, -0.31, -11.03, 2.11, 1.61, 7.33, repro,
2007-11-19,2.22, 2.66, -2.32, 2.09, 1.59, 7.22, repro,
2007-11-20,1.61, -0.01, -3.53, 2.18, 1.69, 7.55, repro,
2007-11-21,2.77, -1.03, -3.92, 2.20, 1.71, 7.63, repro,
2007-11-22,1.47, 0.46, -7.42, 2.48, 2.19, 9.24, repro,
2007-11-23,3.04, -0.43, -4.83, 2.24, 1.77, 7.89, repro,
2007-11-24,2.66, -1.13, -4.09, 2.20, 1.70, 7.56, repro,
2007-11-25,3.69, -1.23, -3.95, 2.16, 1.70, 7.49, repro,
2007-11-26,1.60, -1.60, -6.48, 2.19, 1.72, 7.57, repro,
2007-11-27,2.93, -1.08, -8.22, 2.15, 1.70, 7.47, repro,
2007-11-28,1.09, -1.81, -4.76, 2.61, 2.35, 9.65, repro,
2007-11-29,1.27, -1.72, -6.24, 2.25, 1.73, 7.78, repro,
2007-11-30,2.14, -0.81, -4.04, 2.25, 1.74, 7.71, repro,
2007-12-01,2.33, -1.44, 1.31, 2.23, 1.79, 7.84, repro,
2007-12-02,-0.08, -0.92, -4.91, 2.21, 1.79, 7.83, repro,
2007-12-03,3.13, 3.11, -2.82, 2.22, 1.75, 7.89, repro,
2007-12-04,2.74, 2.22, -13.25, 2.37, 1.94, 8.49, repro,
2007-12-05,2.12, 0.02, -3.43, 2.25, 1.80, 8.03, repro,
2007-12-06,3.36, -0.75, -3.01, 2.50, 2.08, 9.05, repro,
2007-12-07,2.22, 0.64, 3.60, 2.34, 1.92, 8.26, repro,
2007-12-08,2.81, -0.98, 3.32, 2.33, 1.82, 8.04, repro,
2007-12-09,2.62, -0.79, -5.29, 2.50, 2.14, 9.08, repro,
2007-12-10,2.55, -1.03, -4.44, 2.19, 1.73, 7.57, repro,
2007-12-11,2.22, -0.83, -7.76, 2.26, 1.80, 7.84, repro,
2007-12-12,3.87, -1.47, -11.96, 2.35, 1.80, 8.17, repro,
2007-12-13,2.39, -1.07, -10.21, 2.18, 1.67, 7.56, repro,
2007-12-14,2.38, -0.41, -0.92, 2.15, 1.63, 7.41, repro,
2007-12-15,0.67, -1.33, -3.46, 2.17, 1.62, 7.43, repro,
2007-12-16,1.62, -0.19, -0.03, 2.19, 1.63, 7.49, repro,
2007-12-17,2.45, 0.28, -3.04, 2.25, 1.70, 7.70, repro,
2007-12-18,2.86, 0.23, 0.82, 2.23, 1.72, 7.73, repro,
2007-12-19,-0.92, -1.87, -1.27, 2.22, 1.69, 7.69, repro,
2007-12-20,2.89, -0.42, 5.73, 2.14, 1.64, 7.43, repro,
2007-12-21,1.99, -0.77, -6.99, 2.23, 1.69, 7.67, repro,
2007-12-22,1.88, -2.17, -4.47, 2.19, 1.70, 7.64, repro,
2007-12-23,1.74, -0.15, -4.57, 2.19, 1.71, 7.61, repro,
2007-12-24,1.66, 1.39, -2.06, 2.18, 1.67, 7.57, repro,
2007-12-25,3.60, -0.85, -10.55, 2.21, 1.70, 7.54, repro,
2007-12-26,1.10, -0.18, 5.19, 2.16, 1.62, 7.32, repro,
2007-12-27,1.90, -0.35, -1.18, 2.19, 1.67, 7.57, repro,
2007-12-28,1.18, 0.17, -5.83, 2.28, 1.73, 7.84, repro,
2007-12-29,-0.19, 1.06, 0.60, 2.26, 1.69, 7.77, repro,
2007-12-30,0.48, 0.72, -1.81, 2.22, 1.69, 7.70, repro,
2007-12-31,1.77, 0.65, -3.37, 2.20, 1.63, 7.39, repro,
2008-01-01,3.30, -0.78, -12.24, 2.14, 1.59, 7.23, repro,
2008-01-02,1.08, -0.56, -4.99, 2.15, 1.59, 7.33, repro,
2008-01-03,1.51, 0.58, -0.86, 2.25, 1.66, 7.67, repro,
2008-01-04,3.35, 2.31, 3.30, 2.14, 1.58, 7.35, repro,
2008-01-05,-0.14, 1.47, 17.63, 2.13, 1.58, 7.29, repro,
2008-01-06,1.45, -0.63, 4.47, 2.19, 1.58, 7.28, repro,
2008-01-07,0.91, -0.85, -1.82, 2.15, 1.61, 7.37, repro,
2008-01-08,-1.43, -1.60, -0.68, 2.63, 2.14, 9.37, repro,
2008-01-09,0.36, -0.99, -2.46, 2.14, 1.58, 7.25, repro,
2008-01-10,-0.64, -1.65, 1.71, 2.15, 1.61, 7.29, repro,
2008-01-11,1.21, -2.26, -7.89, 2.17, 1.60, 7.31, repro,
2008-01-12,0.53, 0.31, -5.89, 2.20, 1.61, 7.39, repro,
2008-01-13,0.64, -0.73, -10.73, 2.19, 1.63, 7.46, repro,
2008-01-14,0.91, -1.35, -7.32, 2.17, 1.63, 7.37, repro,
2008-01-15,1.08, -0.67, -4.69, 2.08, 1.57, 7.14, repro,
2008-01-16,1.66, -0.88, -9.18, 2.12, 1.58, 7.18, repro,
2008-01-17,1.27, -0.27, -8.07, 2.16, 1.59, 7.31, repro,
2008-01-18,1.23, -0.75, -8.18, 2.34, 1.71, 7.90, repro,
2008-01-19,2.16, -1.40, -9.25, 2.14, 1.61, 7.27, repro,
2008-01-20,-0.54, -1.48, -8.73, 2.13, 1.64, 7.46, repro,
2008-01-21,1.03, -0.61, -5.21, 2.07, 1.57, 7.14, repro,
2008-01-22,0.49, -0.56, -7.15, 2.17, 1.62, 7.36, repro,
2008-01-23,1.50, -0.27, -6.72, 2.17, 1.63, 7.38, repro,
2008-01-24,0.34, -1.88, 0.93, 2.20, 1.68, 7.52, repro,
2008-01-25,2.08, -1.74, -2.64, 2.12, 1.61, 7.17, repro,
2008-01-26,-0.29, -0.20, -10.63, 2.08, 1.57, 7.15, repro,
2008-01-27,0.90, 0.97, 0.00, 2.17, 1.65, 7.49, repro,
2008-01-28,-0.13, 0.31, 6.82, 2.09, 1.57, 7.10, repro,
2008-01-29,0.77, 0.27, 1.78, 2.27, 1.72, 7.69, repro,
2008-01-30,1.76, 0.04, -4.96, 2.20, 1.65, 7.52, repro,
2008-01-31,0.48, -0.42, -11.71, 2.08, 1.57, 7.17, repro,
2008-02-01,0.72, 0.51, -4.16, 2.14, 1.60, 7.28, repro,
2008-02-02,1.81, 0.86, -7.39, 2.08, 1.57, 7.12, repro,
2008-02-03,2.18, 0.88, 0.84, 2.10, 1.58, 7.18, repro,
2008-02-04,2.89, 0.21, -4.08, 2.11, 1.64, 7.34, repro,
2008-02-05,0.77, 0.32, -4.90, 2.13, 1.66, 7.47, repro,
2008-02-06,1.21, -0.81, -5.37, 2.11, 1.65, 7.39, repro,
2008-02-07,0.01, 0.05, -4.46, 2.16, 1.62, 7.39, repro,
2008-02-08,-0.08, 0.09, -1.46, 2.10, 1.58, 7.23, repro,
2008-02-09,1.38, 1.14, -8.26, 2.11, 1.59, 7.25, repro,
2008-02-10,1.00, -0.07, -10.89, 2.11, 1.58, 7.25, repro,
2008-02-11,0.95, 0.72, -4.61, 2.08, 1.58, 7.18, repro,
2008-02-12,-0.01, 1.44, -2.72, 2.18, 1.62, 7.36, repro,
2008-02-13,-0.71, -0.24, 3.69, 2.13, 1.64, 7.33, repro,
2008-02-14,1.26, 0.19, -4.77, 2.12, 1.61, 7.16, repro,
2008-02-15,1.17, 0.13, -7.34, 2.14, 1.64, 7.35, repro,
2008-02-16,0.49, 0.06, -7.03, 2.16, 1.61, 7.36, repro,
2008-02-17,0.41, 0.29, -5.76, 2.14, 1.62, 7.29, repro,
2008-02-18,-0.87, 0.51, 1.34, 2.18, 1.63, 7.40, repro,
2008-02-19,-2.16, -0.70, -2.72, 2.14, 1.65, 7.47, repro,
2008-02-20,0.58, -0.50, -10.81, 2.12, 1.64, 7.33, repro,
2008-02-21,0.68, 1.78, -1.45, 2.17, 1.63, 7.36, repro,
2008-02-22,0.21, 0.46, -3.01, 2.14, 1.63, 7.30, repro,
2008-02-23,-0.58, 0.31, -4.56, 2.13, 1.62, 7.27, repro,
2008-02-24,-0.21, 0.41, -2.02, 2.08, 1.58, 7.16, repro,
2008-02-25,-0.19, 0.06, -4.76, 2.10, 1.59, 7.21, repro,
2008-02-26,0.59, -0.30, -11.90, 2.12, 1.59, 7.27, repro,
2008-02-27,1.42, 0.04, -13.07, 2.13, 1.62, 7.37, repro,
2008-02-28,0.45, 0.22, -9.24, 2.20, 1.67, 7.50, repro,
2008-02-29,-0.54, 0.70, -6.04, 2.08, 1.58, 7.15, repro,
2008-03-01,-1.35, 1.25, -4.17, 2.15, 1.62, 7.38, repro,
2008-03-02,0.55, -0.34, -10.39, 2.25, 1.70, 7.76, repro,
2008-03-03,1.72, -1.02, -10.16, 2.12, 1.59, 7.31, repro,
2008-03-04,1.03, -0.23, -10.14, 2.11, 1.58, 7.24, repro,
2008-03-05,0.36, -0.97, -6.67, 2.28, 1.81, 7.89, repro,
2008-03-06,0.16, -0.63, -7.17, 2.12, 1.58, 7.20, repro,
2008-03-07,1.21, 0.04, -8.09, 2.16, 1.61, 7.32, repro,
2008-03-08,-0.52, 0.19, -10.10, 2.15, 1.65, 7.56, repro,
2008-03-09,1.30, -0.95, -9.43, 2.16, 1.63, 7.53, repro,
2008-03-10,-0.48, -2.10, -7.43, 2.15, 1.61, 7.33, repro,
2008-03-11,2.90, 0.63, -13.19, 2.09, 1.57, 7.08, repro,
2008-03-12,1.85, -1.42, -8.96, 2.13, 1.62, 7.42, repro,
2008-03-13,1.39, -0.06, -0.17, 2.15, 1.64, 7.57, repro,
2008-03-14,3.34, -0.24, -8.30, 2.20, 1.69, 7.66, repro,
2008-03-15,1.15, -1.23, -10.90, 2.12, 1.62, 7.44, repro,
2008-03-16,2.25, -1.03, -7.39, 2.18, 1.66, 7.59, repro,
2008-03-17,2.34, -0.65, -9.06, 2.24, 1.75, 7.97, repro,
2008-03-18,0.41, -0.70, -12.41, 2.16, 1.67, 7.58, repro,
2008-03-19,-0.40, -0.56, -15.41, 2.15, 1.63, 7.44, repro,
2008-03-20,0.75, 0.12, -11.30, 2.13, 1.63, 7.42, repro,
2008-03-21,3.04, -0.44, -14.40, 2.14, 1.63, 7.42, repro,
2008-03-22,0.92, -0.26, -10.84, 2.19, 1.65, 7.53, repro,
2008-03-23,-0.83, -1.77, -11.57, 2.13, 1.61, 7.34, repro,
2008-03-24,2.05, 1.42, -9.59, 2.15, 1.62, 7.43, repro,
2008-03-25,2.80, -0.84, -0.35, 2.17, 1.66, 7.54, repro,
2008-03-26,0.07, -0.25, -4.74, 2.18, 1.67, 7.59, repro,
2008-03-27,1.05, -0.16, -6.61, 2.33, 1.81, 8.28, repro,
2008-03-28,0.78, -0.98, -6.32, 2.15, 1.62, 7.33, repro,
2008-03-29,1.37, -0.97, 0.64, 2.14, 1.59, 7.36, repro,
2008-03-30,1.32, -1.37, -6.94, 2.13, 1.60, 7.37, repro,
2008-03-31,1.26, -0.53, -6.36, 2.11, 1.59, 7.26, repro,
2008-04-01,1.86, -0.42, -7.00, 2.18, 1.63, 7.47, repro,
2008-04-02,1.92, -0.61, -3.78, 2.23, 1.62, 7.59, repro,
2008-04-03,0.96, -0.46, -7.58, 2.19, 1.62, 7.41, repro,
2008-04-04,0.76, -0.57, -13.02, 2.12, 1.58, 7.31, repro,
2008-04-05,0.12, -0.44, -2.26, 2.14, 1.60, 7.46, repro,
2008-04-06,-0.72, -1.79, -4.92, 2.17, 1.61, 7.38, repro,
2008-04-07,-0.60, -0.11, -2.68, 2.15, 1.63, 7.55, repro,
2008-04-08,0.29, -1.83, -2.20, 2.14, 1.58, 7.32, repro,
2008-04-09,1.22, -0.77, -3.03, 2.13, 1.59, 7.34, repro,
2008-04-10,-0.06, -0.27, -6.01, 2.21, 1.66, 7.66, repro,
2008-04-11,1.83, -1.43, -15.44, 2.13, 1.58, 7.33, repro,
2008-04-12,2.42, -0.72, -10.84, 2.18, 1.62, 7.45, repro,
2008-04-13,-0.29, -0.34, -5.77, 2.23, 1.65, 7.64, repro,
2008-04-14,-0.04, -0.89, 1.86, 2.17, 1.61, 7.38, repro,
2008-04-15,-0.00, -1.33, -1.01, 2.16, 1.62, 7.38, repro,
2008-04-16,0.44, -1.66, -6.61, 2.15, 1.63, 7.40, repro,
2008-04-17,1.47, -2.10, -6.43, 2.19, 1.62, 7.53, repro,
2008-04-18,0.69, -0.16, -3.88, 2.29, 1.72, 8.08, repro,
2008-04-19,-0.39, -1.21, -3.10, 2.55, 1.95, 8.96, repro,
2008-04-20,0.23, -0.63, -2.20, 2.12, 1.58, 7.29, repro,
2008-04-21,-0.75, -1.43, -6.24, 2.17, 1.60, 7.43, repro,
2008-04-22,-1.15, -1.37, -8.97, 2.18, 1.62, 7.48, repro,
2008-04-23,3.85, 2.82, -9.72, 2.22, 1.66, 7.71, repro,
2008-04-24,1.33, -0.92, -6.54, 2.14, 1.60, 7.38, repro,
2008-04-25,0.16, -0.65, -8.77, 2.17, 1.60, 7.39, repro,
2008-04-26,0.09, -1.46, -11.07, 2.22, 1.60, 7.48, repro,
2008-04-27,1.10, -1.08, -6.72, 2.29, 1.65, 7.65, repro,
2008-04-28,2.18, -1.57, -8.55, 2.30, 1.68, 7.75, repro,
2008-04-29,2.49, 1.31, -0.29, 2.29, 1.64, 7.69, repro,
2008-04-30,-0.48, -0.78, -3.48, 2.19, 1.61, 7.48, repro,
2008-05-01,-0.28, -1.09, -7.81, 2.17, 1.61, 7.40, repro,
2008-05-02,0.06, -1.32, -3.29, 2.22, 1.64, 7.59, repro,
2008-05-03,0.29, -2.36, -4.38, 2.16, 1.59, 7.41, repro,
2008-05-04,0.93, -1.12, -2.79, 2.16, 1.59, 7.45, repro,
2008-05-05,1.40, -1.06, -5.71, 2.21, 1.63, 7.55, repro,
2008-05-06,0.38, -0.91, -4.27, 2.18, 1.61, 7.47, repro,
2008-05-07,-0.63, -1.45, 2.63, 2.17, 1.60, 7.39, repro,
2008-05-08,1.15, -1.23, -4.10, 2.24, 1.67, 7.72, repro,
2008-05-09,1.35, -1.99, -1.41, 2.18, 1.61, 7.49, repro,
2008-05-10,0.88, -0.52, -1.97, 2.20, 1.63, 7.57, repro,
2008-05-11,0.24, -0.35, 1.33, 2.23, 1.67, 7.70, repro,
2008-05-12,-1.00, -1.19, 1.33, 2.17, 1.59, 7.42, repro,
2008-05-13,-0.34, -0.71, 3.85, 2.17, 1.59, 7.33, repro,
2008-05-14,1.53, -2.26, -4.32, 2.20, 1.61, 7.45, repro,
2008-05-15,1.46, -3.45, -15.79, 2.16, 1.57, 7.30, repro,
2008-05-16,0.68, -2.08, -10.31, 2.49, 1.92, 8.89, repro,
2008-05-17,0.35, -1.46, 2.25, 2.16, 1.58, 7.26, repro,
2008-05-18,-1.03, -1.07, -2.43, 2.18, 1.60, 7.36, repro,
2008-05-19,0.88, -1.10, -4.42, 2.20, 1.60, 7.46, repro,
2008-05-20,0.86, 0.44, -5.78, 2.46, 1.82, 8.49, repro,
2008-05-21,3.32, -1.92, -4.27, 2.17, 1.65, 7.51, repro,
2008-05-22,-0.45, -0.52, 3.90, 2.14, 1.60, 7.37, repro,
2008-05-23,0.63, -0.05, 2.42, 2.16, 1.60, 7.44, repro,
2008-05-24,0.01, -1.37, 0.08, 2.14, 1.58, 7.34, repro,
2008-05-25,1.22, -2.05, -3.18, 2.13, 1.58, 7.31, repro,
2008-05-26,-0.17, -0.58, 3.23, 2.21, 1.65, 7.55, repro,
2008-05-27,0.04, 0.26, -2.20, 2.19, 1.62, 7.47, repro,
2008-05-28,-0.59, -0.91, -5.46, 2.14, 1.58, 7.34, repro,
2008-05-29,0.71, -1.07, -4.97, 2.25, 1.65, 7.69, repro,
2008-05-30,0.67, 0.74, 1.44, 2.18, 1.60, 7.40, repro,
2008-05-31,2.13, -0.27, -7.29, 2.13, 1.58, 7.30, repro,
2008-06-01,1.05, -1.11, -5.57, 2.17, 1.62, 7.38, repro,
2008-06-02,0.01, -0.15, -6.30, 2.12, 1.57, 7.31, repro,
2008-06-03,-0.31, 1.92, -1.48, 2.21, 1.63, 7.62, repro,
2008-06-04,2.56, 0.55, 2.66, 2.14, 1.57, 7.35, repro,
2008-06-05,1.04, 0.34, -0.99, 2.13, 1.57, 7.27, repro,
2008-06-06,1.80, -0.33, -7.26, 2.19, 1.61, 7.47, repro,
2008-06-07,0.93, -0.34, -5.12, 2.20, 1.64, 7.56, repro,
2008-06-08,3.00, -0.06, -7.58, 2.20, 1.62, 7.55, repro,
2008-06-09,1.85, 1.08, -0.83, 2.19, 1.62, 7.52, repro,
2008-06-10,2.25, -0.49, -3.29, 2.13, 1.56, 7.32, repro,
2008-06-11,0.81, -0.01, -6.29, 2.14, 1.57, 7.30, repro,
2008-06-12,1.42, 0.12, -1.88, 2.16, 1.60, 7.48, repro,
2008-06-13,1.46, -0.91, -1.61, 2.18, 1.62, 7.43, repro,
2008-06-14,2.70, -0.24, -2.98, 2.21, 1.61, 7.56, repro,
2008-06-15,2.32, 0.16, -2.83, 2.21, 1.60, 7.49, repro,
2008-06-16,0.07, -1.15, 1.69, 2.15, 1.57, 7.37, repro,
2008-06-17,3.40, 0.24, -6.12, 2.15, 1.58, 7.38, repro,
2008-06-18,1.49, 1.18, -3.15, 2.12, 1.57, 7.26, repro,
2008-06-19,2.73, -0.51, -3.92, 2.16, 1.62, 7.48, repro,
2008-06-20,1.33, 0.12, -2.03, 2.13, 1.57, 7.30, repro,
2008-06-21,1.51, -0.76, -4.28, 2.16, 1.58, 7.42, repro,
2008-06-22,2.02, 0.38, -11.30, 2.15, 1.57, 7.38, repro,
2008-06-23,1.99, -0.40, -1.26, 2.13, 1.57, 7.29, repro,
2008-06-24,2.51, -0.12, 0.71, 2.18, 1.65, 7.54, repro,
2008-06-25,1.23, 0.76, 7.49, 2.14, 1.57, 7.35, repro,
2008-06-26,3.19, -1.41, -4.07, 2.18, 1.62, 7.51, repro,
2008-06-27,2.27, -0.58, 2.64, 2.19, 1.57, 7.41, repro,
2008-06-28,2.78, -0.42, -3.59, 2.31, 1.73, 8.13, repro,
2008-06-29,0.31, 0.51, 0.16, 2.18, 1.65, 7.56, repro,
2008-06-30,1.31, 2.76, -11.15, 2.19, 1.67, 7.67, repro,
2008-07-01,1.99, -0.94, -2.54, 2.20, 1.64, 7.50, repro,
2008-07-02,2.22, -0.52, -1.60, 2.14, 1.57, 7.30, repro,
2008-07-03,1.09, -1.48, -0.57, 2.14, 1.57, 7.27, repro,
2008-07-04,0.63, -2.11, 0.52, 2.19, 1.66, 7.64, repro,
2008-07-05,2.31, 1.06, -0.57, 2.19, 1.66, 7.61, repro,
2008-07-06,1.14, -0.75, 5.43, 2.16, 1.58, 7.43, repro,
2008-07-07,2.34, 0.65, 0.33, 2.24, 1.66, 7.63, repro,
2008-07-08,3.02, -0.34, -0.50, 2.15, 1.57, 7.33, repro,
2008-07-09,2.76, 0.91, 4.54, 2.13, 1.57, 7.30, repro,
2008-07-10,1.24, 0.04, 5.33, 2.24, 1.64, 7.74, repro,
2008-07-11,0.86, 0.17, 6.56, 2.23, 1.67, 7.63, repro,
2008-07-12,1.34, -0.43, 3.96, 2.23, 1.64, 7.65, repro,
2008-07-13,2.24, -0.72, -1.44, 2.24, 1.70, 7.80, repro,
2008-07-14,2.40, 0.12, 1.40, 2.19, 1.63, 7.51, repro,
2008-07-15,-0.63, -1.08, 3.98, 2.19, 1.61, 7.58, repro,
2008-07-16,1.51, -0.00, 2.02, 2.16, 1.59, 7.42, repro,
2008-07-17,3.13, -1.83, 0.60, 2.14, 1.57, 7.32, repro,
2008-07-18,3.75, -0.79, 4.95, 2.28, 1.62, 7.70, repro,
2008-07-19,1.14, -0.41, 11.99, 2.74, 1.81, 8.99, repro,
2008-07-20,3.37, -0.19, 5.88, 2.15, 1.58, 7.39, repro,
2008-07-21,0.09, 0.25, 10.48, 2.69, 1.85, 8.95, repro,
2008-07-22,-0.82, -0.97, 13.77, 2.18, 1.58, 7.40, repro,
2008-07-23,2.47, -0.01, 3.32, 2.18, 1.58, 7.40, repro,
2008-07-24,1.83, 0.62, 4.63, 2.18, 1.58, 7.38, repro,
2008-07-25,2.41, -0.97, 6.02, 2.12, 1.56, 7.30, repro,
2008-07-26,2.39, -0.07, 10.15, 2.19, 1.59, 7.46, repro,
2008-07-27,0.37, -1.75, 9.96, 2.19, 1.59, 7.50, repro,
2008-07-28,3.06, 0.08, 8.05, 2.22, 1.60, 7.49, repro,
2008-07-29,2.34, -1.32, 10.15, 2.23, 1.65, 7.68, repro,
2008-07-30,0.58, -0.69, 16.82, 2.18, 1.57, 7.48, repro,
2008-07-31,1.19, -0.87, 13.73, 2.13, 1.56, 7.29, repro,
2008-08-01,0.68, -0.22, 0.45, 2.18, 1.62, 7.51, repro,
2008-08-02,1.76, -0.97, 9.64, 2.15, 1.57, 7.37, repro,
2008-08-03,2.37, -2.01, 6.12, 2.17, 1.60, 7.39, repro,
2008-08-04,0.28, -0.87, 4.65, 2.12, 1.56, 7.26, repro,
2008-08-05,1.67, 0.37, 0.04, 2.13, 1.57, 7.34, repro,
2008-08-06,0.42, -0.97, 11.97, 2.20, 1.59, 7.53, repro,
2008-08-07,1.60, 0.00, 5.30, 2.31, 1.73, 7.87, repro,
2008-08-08,1.85, -1.05, 2.34, 2.25, 1.64, 7.61, repro,
2008-08-09,0.61, -1.75, 8.39, 2.20, 1.64, 7.51, repro,
2008-08-10,1.94, -2.10, 4.03, 2.20, 1.65, 7.60, repro,
2008-08-11,1.98, 0.14, 3.20, 2.18, 1.58, 7.41, repro,
2008-08-12,1.42, 0.36, 9.32, 2.20, 1.58, 7.46, repro,
2008-08-13,2.18, -0.59, 11.89, 2.23, 1.59, 7.61, repro,
2008-08-14,2.25, -0.24, 8.24, 2.19, 1.58, 7.43, repro,
2008-08-15,2.35, -0.28, 6.56, 2.18, 1.58, 7.47, repro,
2008-08-16,1.07, -0.57, 1.48, 2.17, 1.58, 7.44, repro,
2008-08-17,2.24, -0.34, 13.43, 2.21, 1.59, 7.50, repro,
2008-08-18,2.29, -1.31, 9.05, 2.23, 1.60, 7.57, repro,
2008-08-19,0.23, -2.67, 7.89, 2.19, 1.58, 7.44, repro,
2008-08-20,-3.96, -3.99, 9.78, 2.17, 1.58, 7.40, repro,
2008-08-21,-1.30, -1.95, 3.57, 2.16, 1.57, 7.34, repro,
2008-08-22,3.26, -0.67, 10.79, 2.19, 1.58, 7.43, repro,
2008-08-23,2.11, -0.61, 8.48, 2.28, 1.61, 7.59, repro,
2008-08-24,1.43, -0.01, 3.74, 2.23, 1.63, 7.66, repro,
2008-08-25,3.23, 1.55, 5.81, 2.19, 1.58, 7.43, repro,
2008-08-26,1.00, -0.32, 13.36, 2.22, 1.65, 7.57, repro,
2008-08-27,0.88, -1.25, 12.50, 2.20, 1.60, 7.46, repro,
2008-08-28,2.91, -0.51, 10.03, 2.43, 1.72, 8.04, repro,
2008-08-29,1.48, -0.10, 11.66, 2.30, 1.64, 7.73, repro,
2008-08-30,2.56, 0.64, 6.75, 2.22, 1.61, 7.57, repro,
2008-08-31,1.76, -0.08, 10.26, 2.19, 1.59, 7.40, repro,
2008-09-01,1.54, -1.35, 4.54, 2.20, 1.59, 7.47, repro,
2008-09-02,2.86, -0.32, -0.27, 2.38, 1.70, 7.97, repro,
2008-09-03,1.56, 0.69, 7.02, 2.23, 1.62, 7.55, repro,
2008-09-04,1.49, -0.43, 9.55, 2.42, 1.75, 8.15, repro,
2008-09-05,2.18, -1.18, 1.85, 2.27, 1.64, 7.62, repro,
2008-09-06,1.04, -0.06, 9.76, 2.31, 1.70, 7.80, repro,
2008-09-07,1.78, -0.25, 6.70, 2.20, 1.61, 7.54, repro,
2008-09-08,2.33, 1.11, 4.27, 2.26, 1.65, 7.71, repro,
2008-09-09,0.89, -0.80, 5.77, 2.37, 1.65, 7.82, repro,
2008-09-10,1.73, 0.44, 7.02, 2.38, 1.73, 8.02, repro,
2008-09-11,2.33, -0.72, 6.84, 2.35, 1.69, 7.85, repro,
2008-09-12,2.52, -0.82, 7.37, 2.28, 1.67, 7.76, repro,
2008-09-13,3.16, 0.03, 10.79, 2.29, 1.68, 7.87, repro,
2008-09-14,2.72, 0.94, 9.67, 2.38, 1.72, 8.03, repro,
2008-09-15,1.33, 0.71, 4.95, 2.25, 1.63, 7.58, repro,
2008-09-16,1.68, -0.28, 7.81, 2.21, 1.63, 7.56, repro,
2008-09-17,1.92, -1.06, 4.49, 2.29, 1.65, 7.70, repro,
2008-09-18,2.67, -0.44, 2.31, 2.20, 1.57, 7.38, repro,
2008-09-19,3.02, -1.58, -1.34, 2.19, 1.58, 7.46, repro,
2008-09-20,1.70, -0.24, 8.68, 2.18, 1.59, 7.46, repro,
2008-09-21,0.43, 0.13, 10.45, 2.26, 1.65, 7.76, repro,
2008-09-22,2.81, 0.81, -0.15, 2.24, 1.65, 7.77, repro,
2008-09-23,3.22, -0.27, 7.93, 2.22, 1.63, 7.55, repro,
2008-09-24,0.75, -0.44, 9.00, 2.29, 1.67, 7.81, repro,
2008-09-25,-0.93, -0.10, 12.95, 2.24, 1.62, 7.64, repro,
2008-09-26,0.95, -0.42, 2.57, 2.18, 1.58, 7.40, repro,
2008-09-27,3.06, -0.35, 5.71, 2.27, 1.67, 7.81, repro,
2008-09-28,2.54, 0.66, 4.72, 2.23, 1.64, 7.54, repro,
2008-09-29,1.51, 1.49, 1.52, 2.29, 1.68, 7.73, repro,
2008-09-30,3.00, 0.62, 5.98, 2.26, 1.60, 7.54, repro,
2008-10-01,2.15, -0.71, -2.01, 2.18, 1.57, 7.36, repro,
2008-10-02,1.78, -1.12, -0.86, 2.28, 1.67, 7.81, repro,
2008-10-03,-0.56, -2.81, 1.86, 2.23, 1.61, 7.53, repro,
2008-10-04,2.68, 2.26, 4.15, 2.21, 1.57, 7.41, repro,
2008-10-05,0.19, -0.87, 8.19, 2.20, 1.57, 7.39, repro,
2008-10-06,2.63, -0.44, 5.28, 2.20, 1.59, 7.45, repro,
2008-10-07,-0.28, -0.22, 1.99, 2.22, 1.59, 7.50, repro,
2008-10-08,3.57, -0.24, 0.23, 2.26, 1.64, 7.65, repro,
2008-10-09,2.46, 0.17, 1.00, 2.16, 1.56, 7.33, repro,
2008-10-10,0.31, 0.26, 0.28, 2.15, 1.55, 7.23, repro,
2008-10-11,2.43, -0.29, 0.35, 2.21, 1.61, 7.47, repro,
2008-10-12,1.85, -0.05, 5.29, 2.24, 1.64, 7.61, repro,
2008-10-13,2.39, 0.16, -3.59, 2.29, 1.68, 7.85, repro,
2008-10-14,1.81, 0.25, -1.00, 2.19, 1.58, 7.33, repro,
2008-10-15,1.71, 0.76, -1.56, 2.34, 1.70, 7.87, repro,
2008-10-16,1.80, 0.80, 0.23, 2.21, 1.60, 7.52, repro,
2008-10-17,1.11, 0.13, -0.59, 2.19, 1.59, 7.36, repro,
2008-10-18,1.76, -0.71, 0.01, 2.18, 1.59, 7.46, repro,
2008-10-19,2.70, -1.30, 1.85, 2.14, 1.56, 7.28, repro,
2008-10-20,0.08, -0.09, -4.76, 2.21, 1.59, 7.41, repro,
2008-10-21,2.68, 1.92, -4.32, 2.24, 1.64, 7.66, repro,
2008-10-22,0.66, 0.37, -1.69, 2.13, 1.56, 7.21, repro,
2008-10-23,2.04, 0.75, 7.46, 2.25, 1.60, 7.51, repro,
2008-10-24,2.12, -0.55, 7.31, 2.13, 1.56, 7.30, repro,
2008-10-25,2.77, 0.35, 5.48, 2.13, 1.55, 7.22, repro,
2008-10-26,2.27, -0.08, -4.11, 2.20, 1.60, 7.47, repro,
2008-10-27,0.74, 1.06, -3.51, 2.19, 1.59, 7.40, repro,
2008-10-28,1.75, 0.80, -2.86, 2.31, 1.62, 7.58, repro,
2008-10-29,1.31, -1.03, -3.19, 2.23, 1.58, 7.42, repro,
2008-10-30,2.02, -2.51, 5.09, 2.13, 1.56, 7.25, repro,
2008-10-31,1.52, -0.73, -9.53, 2.22, 1.61, 7.51, repro,
2008-11-01,0.30, -0.12, -4.38, 2.16, 1.59, 7.38, repro,
2008-11-02,-1.13, 0.81, -0.63, 2.18, 1.63, 7.55, repro,
2008-11-03,1.68, 0.57, 1.17, 2.21, 1.64, 7.55, repro,
2008-11-04,2.39, 0.50, -2.51, 2.15, 1.57, 7.33, repro,
2008-11-05,1.12, -0.74, 3.62, 2.15, 1.59, 7.36, repro,
2008-11-06,2.09, -0.24, -2.57, 2.16, 1.60, 7.42, repro,
2008-11-07,1.67, 1.04, -3.34, 2.17, 1.61, 7.48, repro,
2008-11-08,2.72, 1.39, -3.74, 2.19, 1.62, 7.51, repro,
2008-11-09,0.04, -0.18, 3.55, 2.22, 1.66, 7.60, repro,